Time,TemperatureF,DewpointF,PressureIn,WindDirection,WindDirectionDegrees,WindSpeedMPH,WindSpeedGustMPH,Humidity,HourlyPrecipIn,Conditions,Clouds,dailyrainin,SolarRadiationWatts/m^2,SoftwareType,DateUTC
2013-06-14 00:01:00,56.8,47.9,30.06,NNW,344,0.0,0.0,72,0.00,,,0.00,0.0,custom,2013-06-14 07:01:00,
2013-06-14 00:06:00,56.7,47.8,30.06,NNW,344,0.0,0.0,72,0.00,,,0.00,0.0,custom,2013-06-14 07:06:00,
2013-06-14 00:11:00,56.5,47.6,30.06,NNW,344,0.0,0.0,72,0.00,,,0.00,0.0,custom,2013-06-14 07:11:00,
2013-06-14 00:16:00,56.4,47.9,30.06,NNW,344,0.0,0.0,73,0.00,,,0.00,0.0,custom,2013-06-14 07:16:00,
2013-06-14 00:21:00,56.3,47.8,30.05,NNW,344,0.0,0.0,73,0.00,,,0.00,0.0,custom,2013-06-14 07:21:00,
2013-06-14 00:26:00,56.2,48.0,30.05,NNW,344,0.0,0.0,74,0.00,,,0.00,0.0,custom,2013-06-14 07:26:00,
2013-06-14 00:31:00,56.1,48.3,30.05,NNW,344,0.0,0.0,75,0.00,,,0.00,0.0,custom,2013-06-14 07:31:00,
2013-06-14 00:36:00,56.0,47.8,30.05,NNW,344,0.0,0.0,74,0.00,,,0.00,0.0,custom,2013-06-14 07:36:00,
2013-06-14 00:41:00,55.9,48.4,30.05,NNW,344,0.0,0.0,76,0.00,,,0.00,0.0,custom,2013-06-14 07:41:00,
2013-06-14 00:46:00,55.8,48.3,30.05,NNW,344,0.0,0.0,76,0.00,,,0.00,0.0,custom,2013-06-14 07:46:00,
2013-06-14 00:51:00,55.8,48.3,30.05,NNW,344,0.0,0.0,76,0.00,,,0.00,0.0,custom,2013-06-14 07:51:00,
2013-06-14 00:56:00,55.7,48.6,30.05,NNW,344,0.0,0.0,77,0.00,,,0.00,0.0,custom,2013-06-14 07:56:00,
2013-06-14 01:01:00,55.7,48.6,30.05,NNW,344,0.0,0.0,77,0.00,,,0.00,0.0,custom,2013-06-14 08:01:00,
2013-06-14 01:06:00,55.4,48.3,30.05,NNW,344,0.0,0.0,77,0.00,,,0.00,0.0,custom,2013-06-14 08:06:00,
2013-06-14 01:11:00,55.4,48.7,30.04,NNW,344,0.0,0.0,78,0.00,,,0.00,0.0,custom,2013-06-14 08:11:00,
2013-06-14 01:16:00,55.3,48.9,30.04,NNW,344,0.0,0.0,79,0.00,,,0.00,0.0,custom,2013-06-14 08:16:00,
2013-06-14 01:21:00,55.1,48.7,30.04,NNW,344,0.0,0.0,79,0.00,,,0.00,0.0,custom,2013-06-14 08:21:00,
2013-06-14 01:26:00,55.0,48.9,30.04,NNW,344,0.0,0.0,80,0.00,,,0.00,0.0,custom,2013-06-14 08:26:00,
2013-06-14 01:31:00,55.0,48.9,30.04,NNW,344,0.0,0.0,80,0.00,,,0.00,0.0,custom,2013-06-14 08:31:00,
2013-06-14 01:36:00,54.9,49.2,30.04,NNW,344,0.0,0.0,81,0.00,,,0.00,0.0,custom,2013-06-14 08:36:00,
2013-06-14 01:41:00,54.9,49.2,30.04,NNW,344,0.0,0.0,81,0.00,,,0.00,0.0,custom,2013-06-14 08:41:00,
2013-06-14 01:46:00,54.8,49.1,30.03,NNW,344,0.0,0.0,81,0.00,,,0.00,0.0,custom,2013-06-14 08:46:00,
2013-06-14 01:51:00,54.7,49.0,30.03,NNW,344,0.0,0.0,81,0.00,,,0.00,0.0,custom,2013-06-14 08:51:00,
2013-06-14 01:56:00,54.6,48.9,30.03,NNW,344,0.0,0.0,81,0.00,,,0.00,0.0,custom,2013-06-14 08:56:00,
2013-06-14 02:01:00,54.6,48.9,30.03,NNW,344,0.0,0.0,81,0.00,,,0.00,0.0,custom,2013-06-14 09:01:00,
2013-06-14 02:06:00,54.4,48.7,30.03,NNW,344,0.0,0.0,81,0.00,,,0.00,0.0,custom,2013-06-14 09:06:00,
2013-06-14 02:11:00,54.4,48.7,30.02,NNW,344,0.0,0.0,81,0.00,,,0.00,0.0,custom,2013-06-14 09:11:00,
2013-06-14 02:16:00,54.3,48.9,30.02,NNW,344,0.0,0.0,82,0.00,,,0.00,0.0,custom,2013-06-14 09:16:00,
2013-06-14 02:21:00,54.2,48.8,30.02,NNW,344,0.0,0.0,82,0.00,,,0.00,0.0,custom,2013-06-14 09:21:00,
2013-06-14 02:26:00,54.2,48.8,30.02,NNW,344,0.0,0.0,82,0.00,,,0.00,0.0,custom,2013-06-14 09:26:00,
2013-06-14 02:31:00,54.1,48.7,30.02,NNW,344,0.0,0.0,82,0.00,,,0.00,0.0,custom,2013-06-14 09:31:00,
2013-06-14 02:36:00,53.9,48.9,30.02,NNW,344,0.0,0.0,83,0.00,,,0.00,0.0,custom,2013-06-14 09:36:00,
2013-06-14 02:41:00,53.9,48.9,30.02,NNW,344,0.0,0.0,83,0.00,,,0.00,0.0,custom,2013-06-14 09:41:00,
2013-06-14 02:46:00,53.8,48.8,30.02,NNW,344,0.0,0.0,83,0.00,,,0.00,0.0,custom,2013-06-14 09:46:00,
2013-06-14 02:51:00,53.7,48.7,30.02,NNW,344,0.0,0.0,83,0.00,,,0.00,0.0,custom,2013-06-14 09:51:00,
2013-06-14 02:56:00,53.6,48.6,30.02,NNW,344,0.0,0.0,83,0.00,,,0.00,0.0,custom,2013-06-14 09:56:00,
2013-06-14 03:01:00,53.5,48.5,30.01,NNW,344,0.0,0.0,83,0.00,,,0.00,0.0,custom,2013-06-14 10:01:00,
2013-06-14 03:06:00,53.4,48.4,30.01,NNW,344,0.0,0.0,83,0.00,,,0.00,0.0,custom,2013-06-14 10:06:00,
2013-06-14 03:11:00,53.2,48.2,30.02,NNW,344,0.0,0.0,83,0.00,,,0.00,0.0,custom,2013-06-14 10:11:00,
2013-06-14 03:16:00,53.1,48.4,30.02,NNW,344,0.0,0.0,84,0.00,,,0.00,0.0,custom,2013-06-14 10:16:00,
2013-06-14 03:21:00,53.1,48.4,30.02,NNW,344,0.0,0.0,84,0.00,,,0.00,0.0,custom,2013-06-14 10:21:00,
2013-06-14 03:26:00,53.0,48.3,30.02,NNW,344,0.0,0.0,84,0.00,,,0.00,0.0,custom,2013-06-14 10:26:00,
2013-06-14 03:31:00,52.8,48.1,30.02,NNW,344,0.0,0.0,84,0.00,,,0.00,0.0,custom,2013-06-14 10:31:00,
2013-06-14 03:36:00,52.7,48.0,30.02,NNW,344,0.0,0.0,84,0.00,,,0.00,0.0,custom,2013-06-14 10:36:00,
2013-06-14 03:41:00,52.6,48.2,30.02,NNW,344,0.0,0.0,85,0.00,,,0.00,0.0,custom,2013-06-14 10:41:00,
2013-06-14 03:46:00,52.5,48.1,30.01,NNW,344,0.0,0.0,85,0.00,,,0.00,0.0,custom,2013-06-14 10:46:00,
2013-06-14 03:51:00,52.4,48.0,30.01,NNW,344,0.0,0.0,85,0.00,,,0.00,0.0,custom,2013-06-14 10:51:00,
2013-06-14 03:56:00,52.4,48.0,30.01,NNW,344,0.0,0.0,85,0.00,,,0.00,0.0,custom,2013-06-14 10:56:00,
2013-06-14 04:06:00,52.3,48.2,30.01,NNW,344,0.0,0.0,86,0.00,,,0.00,0.0,custom,2013-06-14 11:06:00,
2013-06-14 04:11:00,52.2,48.1,30.01,NNW,344,0.0,0.0,86,0.00,,,0.00,0.0,custom,2013-06-14 11:11:00,
2013-06-14 04:16:00,52.2,48.1,30.01,NNW,344,0.0,0.0,86,0.00,,,0.00,0.0,custom,2013-06-14 11:16:00,
2013-06-14 04:21:00,52.1,48.0,30.00,NNW,344,0.0,0.0,86,0.00,,,0.00,0.0,custom,2013-06-14 11:21:00,
2013-06-14 04:26:00,52.0,47.9,30.00,NNW,344,0.0,0.0,86,0.00,,,0.00,0.0,custom,2013-06-14 11:26:00,
2013-06-14 04:31:00,51.9,47.8,30.00,NNW,344,0.0,0.0,86,0.00,,,0.00,0.0,custom,2013-06-14 11:31:00,
2013-06-14 04:36:00,51.8,47.7,30.00,NNW,344,0.0,0.0,86,0.00,,,0.00,0.0,custom,2013-06-14 11:36:00,
2013-06-14 04:41:00,51.8,47.7,30.00,NNW,344,0.0,0.0,86,0.00,,,0.00,0.0,custom,2013-06-14 11:41:00,
2013-06-14 04:46:00,51.9,48.2,30.00,NNW,344,0.0,0.0,87,0.00,,,0.00,0.0,custom,2013-06-14 11:46:00,
2013-06-14 04:51:00,51.9,48.2,30.00,NNW,344,0.0,0.0,87,0.00,,,0.00,0.0,custom,2013-06-14 11:51:00,
2013-06-14 04:56:00,51.8,48.1,30.00,NNW,344,0.0,0.0,87,0.00,,,0.00,0.0,custom,2013-06-14 11:56:00,
2013-06-14 05:01:00,51.7,47.6,30.00,NNW,344,0.0,0.0,86,0.00,,,0.00,0.0,custom,2013-06-14 12:01:00,
2013-06-14 05:11:00,51.5,47.5,30.01,NNW,344,0.0,0.0,86,0.00,,,0.00,0.0,custom,2013-06-14 12:11:00,
2013-06-14 05:16:00,51.4,47.4,30.01,NNW,344,0.0,0.0,86,0.00,,,0.00,0.0,custom,2013-06-14 12:16:00,
2013-06-14 05:21:00,51.3,47.6,30.00,NNW,344,0.0,0.0,87,0.00,,,0.00,0.0,custom,2013-06-14 12:21:00,
2013-06-14 05:26:00,51.1,47.1,30.00,NNW,344,0.0,0.0,86,0.00,,,0.00,0.0,custom,2013-06-14 12:26:00,
2013-06-14 05:31:00,51.0,47.3,30.00,NNW,344,0.0,0.0,87,0.00,,,0.00,0.0,custom,2013-06-14 12:31:00,
2013-06-14 05:36:00,50.9,46.9,30.01,NNW,344,0.0,0.0,86,0.00,,,0.00,0.0,custom,2013-06-14 12:36:00,
2013-06-14 05:41:00,50.8,46.8,30.01,NNW,344,0.0,0.0,86,0.00,,,0.00,0.0,custom,2013-06-14 12:41:00,
2013-06-14 05:46:00,50.7,46.7,30.01,NNW,344,0.0,0.0,86,0.00,,,0.00,0.0,custom,2013-06-14 12:46:00,
2013-06-14 05:51:00,50.6,46.9,30.01,NNW,344,0.0,0.0,87,0.00,,,0.00,0.0,custom,2013-06-14 12:51:00,
2013-06-14 05:56:00,50.5,46.8,30.01,NNW,344,0.0,0.0,87,0.00,,,0.00,5.0,custom,2013-06-14 12:56:00,
2013-06-14 06:01:00,50.4,46.7,30.01,NNW,344,0.0,0.0,87,0.00,,,0.00,7.0,custom,2013-06-14 13:01:00,
2013-06-14 06:06:00,50.3,46.6,30.01,NNW,344,0.0,0.0,87,0.00,,,0.00,7.0,custom,2013-06-14 13:06:00,
2013-06-14 06:16:00,50.2,46.5,30.01,NNW,344,0.0,0.0,87,0.00,,,0.00,11.0,custom,2013-06-14 13:16:00,
2013-06-14 06:26:00,50.3,46.6,30.01,NNW,344,0.0,0.0,87,0.00,,,0.00,25.0,custom,2013-06-14 13:26:00,
2013-06-14 06:36:00,50.5,46.8,30.01,NNW,344,0.0,0.0,87,0.00,,,0.00,30.0,custom,2013-06-14 13:36:00,
2013-06-14 06:41:00,50.6,46.9,30.01,NNW,344,0.0,0.0,87,0.00,,,0.00,33.0,custom,2013-06-14 13:41:00,
2013-06-14 06:46:00,50.9,47.2,30.01,NNW,344,0.0,0.0,87,0.00,,,0.00,37.0,custom,2013-06-14 13:46:00,
2013-06-14 06:51:00,51.1,47.4,30.01,NNW,344,0.0,0.0,87,0.00,,,0.00,46.0,custom,2013-06-14 13:51:00,
2013-06-14 06:56:00,51.4,47.7,30.01,NNW,344,0.0,0.0,87,0.00,,,0.00,47.0,custom,2013-06-14 13:56:00,
2013-06-14 07:01:00,51.9,48.2,30.01,NNW,344,0.0,0.0,87,0.00,,,0.00,65.0,custom,2013-06-14 14:01:00,
2013-06-14 07:06:00,52.4,48.6,30.01,NNW,344,0.0,0.0,87,0.00,,,0.00,200.0,custom,2013-06-14 14:06:00,
2013-06-14 07:11:00,53.4,49.3,30.01,NNW,344,0.0,0.0,86,0.00,,,0.00,214.0,custom,2013-06-14 14:11:00,
2013-06-14 07:16:00,55.2,51.4,30.01,NNW,344,0.0,0.0,87,0.00,,,0.00,232.0,custom,2013-06-14 14:16:00,
2013-06-14 07:21:00,57.0,52.9,30.01,NNW,344,0.0,0.0,86,0.00,,,0.00,251.0,custom,2013-06-14 14:21:00,
2013-06-14 07:31:00,60.6,54.4,30.01,NNW,344,0.0,0.0,80,0.00,,,0.00,292.0,custom,2013-06-14 14:31:00,
2013-06-14 07:36:00,62.3,55.0,30.01,NNW,344,0.0,0.0,77,0.00,,,0.00,309.0,custom,2013-06-14 14:36:00,
2013-06-14 07:41:00,63.7,55.3,30.00,NNW,344,0.0,0.0,74,0.00,,,0.00,325.0,custom,2013-06-14 14:41:00,
2013-06-14 07:46:00,64.5,54.9,30.00,NNW,344,0.0,0.0,71,0.00,,,0.00,339.0,custom,2013-06-14 14:46:00,
2013-06-14 07:51:00,65.2,55.2,30.00,NNW,344,0.0,0.0,70,0.00,,,0.00,359.0,custom,2013-06-14 14:51:00,
2013-06-14 07:56:00,66.0,55.1,30.00,NNW,344,0.0,0.0,68,0.00,,,0.00,378.0,custom,2013-06-14 14:56:00,
2013-06-14 08:01:00,66.9,54.7,30.00,NNW,344,0.0,0.0,65,0.00,,,0.00,396.0,custom,2013-06-14 15:01:00,
2013-06-14 08:06:00,67.6,55.0,30.00,NNW,344,0.0,0.0,64,0.00,,,0.00,413.0,custom,2013-06-14 15:06:00,
2013-06-14 08:11:00,68.2,55.1,30.00,NNW,344,0.0,0.0,63,0.00,,,0.00,431.0,custom,2013-06-14 15:11:00,
2013-06-14 08:16:00,68.8,55.2,30.00,NNW,344,0.0,0.0,62,0.00,,,0.00,446.0,custom,2013-06-14 15:16:00,
2013-06-14 08:21:00,69.0,55.0,30.00,North,355,0.0,0.0,61,0.00,,,0.00,464.0,custom,2013-06-14 15:21:00,
2013-06-14 08:26:00,69.4,55.4,30.00,North,355,0.0,0.0,61,0.00,,,0.00,483.0,custom,2013-06-14 15:26:00,
2013-06-14 08:31:00,69.7,55.6,30.00,North,355,0.0,1.0,61,0.00,,,0.00,499.0,custom,2013-06-14 15:31:00,
2013-06-14 08:36:00,70.2,54.7,30.00,North,355,0.0,0.0,58,0.00,,,0.00,515.0,custom,2013-06-14 15:36:00,
2013-06-14 08:41:00,70.5,55.0,30.00,North,355,0.0,0.0,58,0.00,,,0.00,533.0,custom,2013-06-14 15:41:00,
2013-06-14 08:46:00,71.0,55.5,30.00,North,355,0.0,0.0,58,0.00,,,0.00,554.0,custom,2013-06-14 15:46:00,
2013-06-14 08:51:00,71.3,54.8,30.00,North,355,0.0,0.0,56,0.00,,,0.00,564.0,custom,2013-06-14 15:51:00,
2013-06-14 08:56:00,71.6,55.1,30.00,North,355,0.0,1.0,56,0.00,,,0.00,582.0,custom,2013-06-14 15:56:00,
2013-06-14 09:01:00,72.1,55.0,30.00,North,355,0.0,0.0,55,0.00,,,0.00,603.0,custom,2013-06-14 16:01:00,
2013-06-14 09:06:00,72.7,55.6,30.00,North,355,0.0,0.0,55,0.00,,,0.00,610.0,custom,2013-06-14 16:06:00,
2013-06-14 09:11:00,73.5,55.8,30.00,North,355,0.0,0.0,54,0.00,,,0.00,631.0,custom,2013-06-14 16:11:00,
2013-06-14 09:16:00,74.3,55.5,30.00,North,355,0.0,0.0,52,0.00,,,0.00,645.0,custom,2013-06-14 16:16:00,
2013-06-14 09:21:00,74.9,55.5,30.00,NNW,343,0.0,2.0,51,0.00,,,0.00,659.0,custom,2013-06-14 16:21:00,
2013-06-14 09:26:00,75.3,54.8,30.00,NNW,338,1.0,0.0,49,0.00,,,0.00,675.0,custom,2013-06-14 16:26:00,
2013-06-14 09:31:00,75.8,54.7,29.99,NNW,337,1.0,1.0,48,0.00,,,0.00,689.0,custom,2013-06-14 16:31:00,
2013-06-14 09:36:00,76.1,54.4,29.99,NNW,338,0.0,1.0,47,0.00,,,0.00,701.0,custom,2013-06-14 16:36:00,
2013-06-14 09:41:00,76.5,51.7,29.99,NNW,338,0.0,0.0,42,0.00,,,0.00,717.0,custom,2013-06-14 16:41:00,
2013-06-14 09:46:00,76.8,52.6,29.99,NW,306,0.0,1.0,43,0.00,,,0.00,729.0,custom,2013-06-14 16:46:00,
2013-06-14 09:51:00,77.2,51.7,29.98,NW,307,0.0,0.0,41,0.00,,,0.00,744.0,custom,2013-06-14 16:51:00,
2013-06-14 09:56:00,77.8,50.1,29.99,NW,304,0.0,0.0,38,0.00,,,0.00,756.0,custom,2013-06-14 16:56:00,
2013-06-14 10:01:00,78.1,51.8,29.99,NW,304,0.0,0.0,40,0.00,,,0.00,772.0,custom,2013-06-14 17:01:00,
2013-06-14 10:06:00,78.7,50.9,29.98,NW,306,0.0,1.0,38,0.00,,,0.00,782.0,custom,2013-06-14 17:06:00,
2013-06-14 10:11:00,79.3,51.5,29.98,North,360,0.0,0.0,38,0.00,,,0.00,798.0,custom,2013-06-14 17:11:00,
2013-06-14 10:16:00,79.5,50.2,29.98,NNE,22,0.0,0.0,36,0.00,,,0.00,814.0,custom,2013-06-14 17:16:00,
2013-06-14 10:21:00,79.8,49.7,29.98,NNE,19,0.0,0.0,35,0.00,,,0.00,821.0,custom,2013-06-14 17:21:00,
2013-06-14 10:26:00,80.3,49.3,29.98,NNE,18,0.0,0.0,34,0.00,,,0.00,837.0,custom,2013-06-14 17:26:00,
2013-06-14 10:31:00,80.9,47.4,29.98,South,188,0.0,0.0,31,0.00,,,0.00,849.0,custom,2013-06-14 17:31:00,
2013-06-14 10:36:00,81.0,46.6,29.98,South,190,0.0,0.0,30,0.00,,,0.00,858.0,custom,2013-06-14 17:36:00,
2013-06-14 10:46:00,81.3,46.9,29.98,West,273,0.0,0.0,30,0.00,,,0.00,879.0,custom,2013-06-14 17:46:00,
2013-06-14 10:51:00,81.8,47.3,29.98,NNW,342,0.0,0.0,30,0.00,,,0.00,891.0,custom,2013-06-14 17:51:00,
2013-06-14 10:56:00,82.0,46.6,29.98,NNW,336,1.0,0.0,29,0.00,,,0.00,904.0,custom,2013-06-14 17:56:00,
2013-06-14 11:01:00,82.2,46.8,29.97,North,11,1.0,0.0,29,0.00,,,0.00,919.0,custom,2013-06-14 18:01:00,
2013-06-14 11:11:00,82.5,47.0,29.97,NNE,32,0.0,1.0,29,0.00,,,0.00,330.0,custom,2013-06-14 18:11:00,
2013-06-14 11:16:00,82.6,46.2,29.97,NNE,32,0.0,0.0,28,0.00,,,0.00,963.0,custom,2013-06-14 18:16:00,
2013-06-14 11:21:00,82.8,45.4,29.97,NNE,32,0.0,0.0,27,0.00,,,0.00,970.0,custom,2013-06-14 18:21:00,
2013-06-14 11:26:00,82.9,45.5,29.97,NNE,32,0.0,0.0,27,0.00,,,0.00,969.0,custom,2013-06-14 18:26:00,
2013-06-14 11:31:00,83.0,46.5,29.97,NE,36,0.0,0.0,28,0.00,,,0.00,965.0,custom,2013-06-14 18:31:00,
2013-06-14 11:36:00,83.4,44.9,29.97,NE,36,0.0,0.0,26,0.00,,,0.00,984.0,custom,2013-06-14 18:36:00,
2013-06-14 11:46:00,84.1,45.5,29.97,East,81,0.0,0.0,26,0.00,,,0.00,881.0,custom,2013-06-14 18:46:00,
2013-06-14 11:51:00,84.3,44.6,29.96,South,186,0.0,0.0,25,0.00,,,0.00,879.0,custom,2013-06-14 18:51:00,
2013-06-14 11:56:00,84.5,45.8,29.96,East,98,0.0,0.0,26,0.00,,,0.00,867.0,custom,2013-06-14 18:56:00,
2013-06-14 12:01:00,84.8,46.1,29.96,SSW,199,0.0,0.0,26,0.00,,,0.00,840.0,custom,2013-06-14 19:01:00,
2013-06-14 12:06:00,85.1,48.3,29.96,South,177,0.0,0.0,28,0.00,,,0.00,1039.0,custom,2013-06-14 19:06:00,
2013-06-14 12:11:00,85.4,47.6,29.96,NW,306,0.0,0.0,27,0.00,,,0.00,1028.0,custom,2013-06-14 19:11:00,
2013-06-14 12:16:00,85.9,48.0,29.96,South,175,1.0,2.0,27,0.00,,,0.00,1039.0,custom,2013-06-14 19:16:00,
2013-06-14 12:21:00,85.6,48.7,29.96,South,169,1.0,2.0,28,0.00,,,0.00,1030.0,custom,2013-06-14 19:21:00,
2013-06-14 12:26:00,85.9,48.0,29.96,North,355,1.0,3.0,27,0.00,,,0.00,1032.0,custom,2013-06-14 19:26:00,
2013-06-14 12:31:00,86.4,46.4,29.95,South,171,1.0,2.0,25,0.00,,,0.00,1030.0,custom,2013-06-14 19:31:00,
2013-06-14 12:36:00,87.0,46.9,29.95,North,360,1.0,0.0,25,0.00,,,0.00,1020.0,custom,2013-06-14 19:36:00,
2013-06-14 12:41:00,86.8,46.7,29.95,NE,53,1.0,2.0,25,0.00,,,0.00,1020.0,custom,2013-06-14 19:41:00,
2013-06-14 12:46:00,86.6,46.6,29.95,North,350,1.0,1.0,25,0.00,,,0.00,1020.0,custom,2013-06-14 19:46:00,
2013-06-14 12:51:00,86.8,45.6,29.95,NNW,334,1.0,0.0,24,0.00,,,0.00,1020.0,custom,2013-06-14 19:51:00,
2013-06-14 12:56:00,86.8,44.5,29.95,NNE,13,1.0,2.0,23,0.00,,,0.00,1021.0,custom,2013-06-14 19:56:00,
2013-06-14 13:01:00,87.0,46.9,29.95,WNW,291,1.0,0.0,25,0.00,,,0.00,1027.0,custom,2013-06-14 20:01:00,
2013-06-14 13:06:00,87.5,45.1,29.94,NW,323,0.0,0.0,23,0.00,,,0.00,1083.0,custom,2013-06-14 20:06:00,
2013-06-14 13:11:00,87.8,44.2,29.94,NNE,23,1.0,2.0,22,0.00,,,0.00,1035.0,custom,2013-06-14 20:11:00,
2013-06-14 13:16:00,87.7,45.3,29.94,North,5,1.0,0.0,23,0.00,,,0.00,1039.0,custom,2013-06-14 20:16:00,
2013-06-14 13:21:00,87.7,45.3,29.94,SSW,192,1.0,1.0,23,0.00,,,0.00,1046.0,custom,2013-06-14 20:21:00,
2013-06-14 13:26:00,88.3,45.8,29.94,NNE,13,1.0,0.0,23,0.00,,,0.00,1046.0,custom,2013-06-14 20:26:00,
2013-06-14 13:31:00,88.1,43.2,29.94,NNE,18,2.0,3.0,21,0.00,,,0.00,1051.0,custom,2013-06-14 20:31:00,
2013-06-14 13:36:00,87.7,44.1,29.94,North,11,2.0,2.0,22,0.00,,,0.00,1051.0,custom,2013-06-14 20:36:00,
2013-06-14 13:41:00,87.4,46.1,29.94,NNE,14,2.0,5.0,24,0.00,,,0.00,1048.0,custom,2013-06-14 20:41:00,
2013-06-14 13:46:00,87.3,44.9,29.93,West,263,2.0,0.0,23,0.00,,,0.00,967.0,custom,2013-06-14 20:46:00,
2013-06-14 13:51:00,87.4,46.1,29.93,WNW,288,3.0,4.0,24,0.00,,,0.00,1035.0,custom,2013-06-14 20:51:00,
2013-06-14 13:56:00,87.5,46.2,29.93,North,350,2.0,2.0,24,0.00,,,0.00,1007.0,custom,2013-06-14 20:56:00,
2013-06-14 14:01:00,87.4,46.1,29.93,NNE,19,2.0,2.0,24,0.00,,,0.00,995.0,custom,2013-06-14 21:01:00,
2013-06-14 14:06:00,87.3,48.2,29.93,NNW,338,2.0,5.0,26,0.00,,,0.00,997.0,custom,2013-06-14 21:06:00,
2013-06-14 14:11:00,87.1,45.9,29.93,WSW,249,3.0,3.0,24,0.00,,,0.00,944.0,custom,2013-06-14 21:11:00,
2013-06-14 14:16:00,86.9,46.8,29.93,NNE,24,2.0,2.0,25,0.00,,,0.00,981.0,custom,2013-06-14 21:16:00,
2013-06-14 14:21:00,87.1,45.9,29.93,North,350,2.0,3.0,24,0.00,,,0.00,969.0,custom,2013-06-14 21:21:00,
2013-06-14 14:26:00,87.1,45.9,29.93,NW,309,3.0,3.0,24,0.00,,,0.00,958.0,custom,2013-06-14 21:26:00,
2013-06-14 14:31:00,87.2,47.1,29.92,North,355,3.0,3.0,25,0.00,,,0.00,949.0,custom,2013-06-14 21:31:00,
2013-06-14 14:36:00,87.4,46.1,29.92,NNW,347,2.0,0.0,24,0.00,,,0.00,942.0,custom,2013-06-14 21:36:00,
2013-06-14 14:41:00,87.8,46.5,29.92,North,360,2.0,3.0,24,0.00,,,0.00,933.0,custom,2013-06-14 21:41:00,
2013-06-14 14:46:00,87.5,46.2,29.92,NNW,340,3.0,3.0,24,0.00,,,0.00,926.0,custom,2013-06-14 21:46:00,
2013-06-14 14:51:00,87.4,47.2,29.92,NW,323,2.0,2.0,25,0.00,,,0.00,916.0,custom,2013-06-14 21:51:00,
2013-06-14 14:56:00,87.5,47.3,29.91,NNE,19,3.0,3.0,25,0.00,,,0.00,907.0,custom,2013-06-14 21:56:00,
2013-06-14 15:01:00,87.6,48.4,29.91,NNE,28,2.0,2.0,26,0.00,,,0.00,900.0,custom,2013-06-14 22:01:00,
2013-06-14 15:06:00,87.6,47.4,29.91,WNW,294,2.0,4.0,25,0.00,,,0.00,877.0,custom,2013-06-14 22:06:00,
2013-06-14 15:11:00,87.5,47.3,29.91,North,11,3.0,5.0,25,0.00,,,0.00,884.0,custom,2013-06-14 22:11:00,
2013-06-14 15:16:00,87.1,48.0,29.91,NNW,345,3.0,3.0,26,0.00,,,0.00,812.0,custom,2013-06-14 22:16:00,
2013-06-14 15:21:00,87.0,47.9,29.91,NNW,334,3.0,3.0,26,0.00,,,0.00,86.0,custom,2013-06-14 22:21:00,
2013-06-14 15:26:00,86.7,47.7,29.90,North,355,3.0,3.0,26,0.00,,,0.00,93.0,custom,2013-06-14 22:26:00,
2013-06-14 15:31:00,86.6,47.6,29.90,NNW,334,2.0,3.0,26,0.00,,,0.00,56.0,custom,2013-06-14 22:31:00,
2013-06-14 15:36:00,86.8,47.8,29.90,NNW,342,2.0,2.0,26,0.00,,,0.00,65.0,custom,2013-06-14 22:36:00,
2013-06-14 15:41:00,87.0,46.9,29.90,WNW,287,1.0,0.0,25,0.00,,,0.00,54.0,custom,2013-06-14 22:41:00,
2013-06-14 15:46:00,87.3,47.1,29.90,NNE,13,1.0,0.0,25,0.00,,,0.00,58.0,custom,2013-06-14 22:46:00,
2013-06-14 15:51:00,87.4,47.2,29.90,North,350,1.0,4.0,25,0.00,,,0.00,53.0,custom,2013-06-14 22:51:00,
2013-06-14 15:56:00,87.1,47.0,29.90,WSW,240,2.0,2.0,25,0.00,,,0.00,116.0,custom,2013-06-14 22:56:00,
2013-06-14 16:01:00,87.1,45.9,29.89,SSE,150,1.0,1.0,24,0.00,,,0.00,51.0,custom,2013-06-14 23:01:00,
2013-06-14 16:06:00,87.1,45.9,29.89,NE,56,1.0,1.0,24,0.00,,,0.00,49.0,custom,2013-06-14 23:06:00,
2013-06-14 16:16:00,87.3,46.1,29.89,SW,234,1.0,2.0,24,0.00,,,0.00,47.0,custom,2013-06-14 23:16:00,
2013-06-14 16:21:00,87.2,46.0,29.89,NE,42,1.0,4.0,24,0.00,,,0.00,46.0,custom,2013-06-14 23:21:00,
2013-06-14 16:26:00,87.1,44.8,29.89,NE,34,1.0,1.0,23,0.00,,,0.00,47.0,custom,2013-06-14 23:26:00,
2013-06-14 16:36:00,86.6,43.2,29.88,WNW,291,2.0,0.0,22,0.00,,,0.00,44.0,custom,2013-06-14 23:36:00,
2013-06-14 16:41:00,86.6,44.4,29.88,SSW,213,1.0,0.0,23,0.00,,,0.00,47.0,custom,2013-06-14 23:41:00,
2013-06-14 16:46:00,86.6,44.4,29.88,WNW,297,1.0,2.0,23,0.00,,,0.00,47.0,custom,2013-06-14 23:46:00,
2013-06-14 16:51:00,86.4,44.2,29.88,WNW,302,1.0,0.0,23,0.00,,,0.00,88.0,custom,2013-06-14 23:51:00,
2013-06-14 16:56:00,86.4,43.0,29.88,NNE,19,1.0,1.0,22,0.00,,,0.00,42.0,custom,2013-06-14 23:56:00,
2013-06-14 17:01:00,86.4,43.0,29.88,SE,134,1.0,0.0,22,0.00,,,0.00,65.0,custom,2013-06-15 00:01:00,
2013-06-14 17:06:00,86.4,44.2,29.88,SW,226,1.0,0.0,23,0.00,,,0.00,120.0,custom,2013-06-15 00:06:00,
2013-06-14 17:11:00,86.4,43.0,29.87,WNW,285,0.0,1.0,22,0.00,,,0.00,44.0,custom,2013-06-15 00:11:00,
2013-06-14 17:16:00,86.5,44.3,29.88,SW,229,0.0,0.0,23,0.00,,,0.00,114.0,custom,2013-06-15 00:16:00,
2013-06-14 17:21:00,86.6,43.2,29.87,SW,223,0.0,0.0,22,0.00,,,0.00,69.0,custom,2013-06-15 00:21:00,
2013-06-14 17:26:00,86.5,43.1,29.87,SSW,197,0.0,0.0,22,0.00,,,0.00,165.0,custom,2013-06-15 00:26:00,
2013-06-14 17:31:00,86.2,42.9,29.87,SE,145,0.0,1.0,22,0.00,,,0.00,95.0,custom,2013-06-15 00:31:00,
2013-06-14 17:36:00,85.9,42.6,29.87,North,360,1.0,1.0,22,0.00,,,0.00,37.0,custom,2013-06-15 00:36:00,
2013-06-14 17:41:00,85.7,42.4,29.87,South,171,1.0,0.0,22,0.00,,,0.00,35.0,custom,2013-06-15 00:41:00,
2013-06-14 17:46:00,85.6,42.4,29.87,NNE,18,0.0,1.0,22,0.00,,,0.00,35.0,custom,2013-06-15 00:46:00,
2013-06-14 17:51:00,85.4,42.2,29.87,NW,306,0.0,0.0,22,0.00,,,0.00,35.0,custom,2013-06-15 00:51:00,
2013-06-14 17:56:00,85.1,47.3,29.87,NNW,331,1.0,3.0,27,0.00,,,0.00,37.0,custom,2013-06-15 00:56:00,
2013-06-14 18:01:00,84.6,49.7,29.87,ESE,104,1.0,1.0,30,0.00,,,0.00,33.0,custom,2013-06-15 01:01:00,
2013-06-14 18:06:00,83.7,49.8,29.87,ENE,78,1.0,1.0,31,0.00,,,0.00,33.0,custom,2013-06-15 01:06:00,
2013-06-14 18:11:00,82.9,50.0,29.87,NNW,334,1.0,0.0,32,0.00,,,0.00,33.0,custom,2013-06-15 01:11:00,
2013-06-14 18:16:00,82.3,53.4,29.87,NW,322,0.0,0.0,37,0.00,,,0.00,33.0,custom,2013-06-15 01:16:00,
2013-06-14 18:21:00,81.6,51.3,29.87,NNE,30,1.0,0.0,35,0.00,,,0.00,32.0,custom,2013-06-15 01:21:00,
2013-06-14 18:26:00,80.9,49.9,29.87,NW,325,1.0,0.0,34,0.00,,,0.00,32.0,custom,2013-06-15 01:26:00,
2013-06-14 18:31:00,80.3,50.9,29.87,NE,37,1.0,1.0,36,0.00,,,0.00,32.0,custom,2013-06-15 01:31:00,
2013-06-14 18:36:00,79.6,52.4,29.87,ENE,71,1.0,0.0,39,0.00,,,0.00,30.0,custom,2013-06-15 01:36:00,
2013-06-14 18:41:00,78.9,51.1,29.87,ENE,70,0.0,0.0,38,0.00,,,0.00,30.0,custom,2013-06-15 01:41:00,
2013-06-14 18:46:00,78.5,51.5,29.87,NE,38,0.0,0.0,39,0.00,,,0.00,30.0,custom,2013-06-15 01:46:00,
2013-06-14 18:51:00,77.9,51.6,29.88,North,355,0.0,0.0,40,0.00,,,0.00,28.0,custom,2013-06-15 01:51:00,
2013-06-14 18:56:00,77.5,51.9,29.88,North,355,0.0,0.0,41,0.00,,,0.00,28.0,custom,2013-06-15 01:56:00,
2013-06-14 19:01:00,77.0,52.8,29.88,NW,325,0.0,0.0,43,0.00,,,0.00,26.0,custom,2013-06-15 02:01:00,
2013-06-14 19:06:00,76.3,54.0,29.88,NNW,348,1.0,0.0,46,0.00,,,0.00,26.0,custom,2013-06-15 02:06:00,
2013-06-14 19:11:00,75.5,54.4,29.88,NNW,348,1.0,0.0,48,0.00,,,0.00,26.0,custom,2013-06-15 02:11:00,
2013-06-14 19:16:00,74.7,54.8,29.88,NNW,347,0.0,0.0,50,0.00,,,0.00,25.0,custom,2013-06-15 02:16:00,
2013-06-14 19:21:00,73.9,54.1,29.88,NNE,32,0.0,0.0,50,0.00,,,0.00,23.0,custom,2013-06-15 02:21:00,
2013-06-14 19:26:00,73.2,53.4,29.88,NNE,32,0.0,0.0,50,0.00,,,0.00,23.0,custom,2013-06-15 02:26:00,
2013-06-14 19:31:00,72.8,53.1,29.88,NNE,32,0.0,0.0,50,0.00,,,0.00,21.0,custom,2013-06-15 02:31:00,
2013-06-14 19:36:00,72.4,52.1,29.88,NNE,32,0.0,1.0,49,0.00,,,0.00,19.0,custom,2013-06-15 02:36:00,
2013-06-14 19:41:00,72.2,52.0,29.88,NNE,32,0.0,1.0,49,0.00,,,0.00,19.0,custom,2013-06-15 02:41:00,
2013-06-14 19:46:00,72.0,52.9,29.89,NNE,32,0.0,2.0,51,0.00,,,0.00,18.0,custom,2013-06-15 02:46:00,
2013-06-14 19:51:00,71.6,52.5,29.89,NE,38,0.0,0.0,51,0.00,,,0.00,18.0,custom,2013-06-15 02:51:00,
2013-06-14 19:56:00,71.1,53.1,29.89,NNE,30,1.0,0.0,53,0.00,,,0.00,16.0,custom,2013-06-15 02:56:00,
2013-06-14 20:01:00,70.5,53.0,29.89,NNE,24,1.0,1.0,54,0.00,,,0.00,14.0,custom,2013-06-15 03:01:00,
2013-06-14 20:06:00,69.8,52.9,29.89,NE,36,1.0,0.0,55,0.00,,,0.00,12.0,custom,2013-06-15 03:06:00,
2013-06-14 20:11:00,69.0,52.6,29.89,NW,318,1.0,0.0,56,0.00,,,0.00,11.0,custom,2013-06-15 03:11:00,
2013-06-14 20:16:00,68.3,52.0,29.89,NNW,331,1.0,1.0,56,0.00,,,0.00,9.0,custom,2013-06-15 03:16:00,
2013-06-14 20:21:00,67.7,51.9,29.89,NNW,338,1.0,0.0,57,0.00,,,0.00,7.0,custom,2013-06-15 03:21:00,
2013-06-14 20:26:00,67.1,51.3,29.89,NE,34,1.0,1.0,57,0.00,,,0.00,5.0,custom,2013-06-15 03:26:00,
2013-06-14 20:31:00,66.7,51.4,29.90,North,355,0.0,0.0,58,0.00,,,0.00,0.0,custom,2013-06-15 03:31:00,
2013-06-14 20:36:00,66.3,51.5,29.90,North,355,0.0,0.0,59,0.00,,,0.00,0.0,custom,2013-06-15 03:36:00,
2013-06-14 20:41:00,65.9,51.2,29.90,North,360,0.0,0.0,59,0.00,,,0.00,0.0,custom,2013-06-15 03:41:00,
2013-06-14 20:46:00,65.4,51.1,29.90,North,5,0.0,0.0,60,0.00,,,0.00,0.0,custom,2013-06-15 03:46:00,
2013-06-14 20:51:00,64.9,50.2,29.90,North,5,0.0,0.0,59,0.00,,,0.00,0.0,custom,2013-06-15 03:51:00,
2013-06-14 20:56:00,64.5,49.8,29.90,North,360,0.0,0.0,59,0.00,,,0.00,0.0,custom,2013-06-15 03:56:00,
2013-06-14 21:01:00,64.1,49.5,29.90,NNE,14,0.0,0.0,59,0.00,,,0.00,0.0,custom,2013-06-15 04:01:00,
2013-06-14 21:06:00,63.9,48.8,29.90,NNE,12,0.0,0.0,58,0.00,,,0.00,0.0,custom,2013-06-15 04:06:00,
2013-06-14 21:11:00,63.6,48.5,29.91,NNE,12,0.0,0.0,58,0.00,,,0.00,0.0,custom,2013-06-15 04:11:00,
2013-06-14 21:16:00,63.4,49.3,29.91,NNE,12,0.0,0.0,60,0.00,,,0.00,0.0,custom,2013-06-15 04:16:00,
2013-06-14 21:21:00,63.2,49.1,29.91,North,11,0.0,0.0,60,0.00,,,0.00,0.0,custom,2013-06-15 04:21:00,
2013-06-14 21:26:00,63.0,49.3,29.91,NNE,12,0.0,0.0,61,0.00,,,0.00,0.0,custom,2013-06-15 04:26:00,
2013-06-14 21:31:00,62.7,49.1,29.91,North,11,0.0,0.0,61,0.00,,,0.00,0.0,custom,2013-06-15 04:31:00,
2013-06-14 21:36:00,62.4,49.2,29.91,North,360,0.0,0.0,62,0.00,,,0.00,0.0,custom,2013-06-15 04:36:00,
2013-06-14 21:41:00,62.1,48.9,29.91,North,5,0.0,0.0,62,0.00,,,0.00,0.0,custom,2013-06-15 04:41:00,
2013-06-14 21:46:00,61.9,49.2,29.91,North,5,0.0,0.0,63,0.00,,,0.00,0.0,custom,2013-06-15 04:46:00,
2013-06-14 21:51:00,61.6,48.9,29.92,North,5,0.0,0.0,63,0.00,,,0.00,0.0,custom,2013-06-15 04:51:00,
2013-06-14 21:56:00,61.3,48.6,29.92,North,5,0.0,0.0,63,0.00,,,0.00,0.0,custom,2013-06-15 04:56:00,
2013-06-14 22:01:00,61.1,48.4,29.92,North,5,0.0,0.0,63,0.00,,,0.00,0.0,custom,2013-06-15 05:01:00,
2013-06-14 22:11:00,60.5,47.8,29.92,North,360,0.0,0.0,63,0.00,,,0.00,0.0,custom,2013-06-15 05:11:00,
2013-06-14 22:16:00,60.2,48.0,29.92,North,9,0.0,0.0,64,0.00,,,0.00,0.0,custom,2013-06-15 05:16:00,
2013-06-14 22:21:00,59.8,48.0,29.92,North,5,0.0,0.0,65,0.00,,,0.00,0.0,custom,2013-06-15 05:21:00,
2013-06-14 22:26:00,59.6,47.8,29.92,North,5,0.0,0.0,65,0.00,,,0.00,0.0,custom,2013-06-15 05:26:00,
2013-06-14 22:31:00,59.4,48.0,29.93,North,5,0.0,0.0,66,0.00,,,0.00,0.0,custom,2013-06-15 05:31:00,
2013-06-14 22:36:00,59.0,47.2,29.93,North,5,0.0,0.0,65,0.00,,,0.00,0.0,custom,2013-06-15 05:36:00,
2013-06-14 22:41:00,59.0,48.1,29.93,North,5,0.0,0.0,67,0.00,,,0.00,0.0,custom,2013-06-15 05:41:00,
2013-06-14 22:46:00,59.0,48.5,29.92,North,5,0.0,0.0,68,0.00,,,0.00,0.0,custom,2013-06-15 05:46:00,
2013-06-14 22:51:00,58.7,48.6,29.92,North,360,0.0,0.0,69,0.00,,,0.00,0.0,custom,2013-06-15 05:51:00,
2013-06-14 22:56:00,58.6,48.8,29.92,North,5,0.0,0.0,70,0.00,,,0.00,0.0,custom,2013-06-15 05:56:00,
2013-06-14 23:01:00,58.4,48.7,29.92,North,5,0.0,0.0,70,0.00,,,0.00,0.0,custom,2013-06-15 06:01:00,
2013-06-14 23:06:00,58.3,48.9,29.92,North,5,0.0,0.0,71,0.00,,,0.00,0.0,custom,2013-06-15 06:06:00,
2013-06-14 23:11:00,58.1,48.7,29.92,North,360,0.0,0.0,71,0.00,,,0.00,0.0,custom,2013-06-15 06:11:00,
2013-06-14 23:16:00,57.9,48.6,29.92,North,5,0.0,0.0,71,0.00,,,0.00,0.0,custom,2013-06-15 06:16:00,
2013-06-14 23:21:00,57.7,48.7,29.92,North,5,0.0,0.0,72,0.00,,,0.00,0.0,custom,2013-06-15 06:21:00,
2013-06-14 23:26:00,57.4,48.4,29.92,North,5,0.0,0.0,72,0.00,,,0.00,0.0,custom,2013-06-15 06:26:00,
2013-06-14 23:31:00,57.3,49.1,29.92,North,360,0.0,0.0,74,0.00,,,0.00,0.0,custom,2013-06-15 06:31:00,
2013-06-14 23:36:00,57.1,48.9,29.91,North,5,0.0,0.0,74,0.00,,,0.00,0.0,custom,2013-06-15 06:36:00,
2013-06-14 23:41:00,56.9,48.7,29.92,North,5,0.0,0.0,74,0.00,,,0.00,0.0,custom,2013-06-15 06:41:00,
2013-06-14 23:46:00,56.8,48.6,29.92,North,360,0.0,0.0,74,0.00,,,0.00,0.0,custom,2013-06-15 06:46:00,
2013-06-14 23:51:00,56.7,48.9,29.91,North,360,0.0,0.0,75,0.00,,,0.00,0.0,custom,2013-06-15 06:51:00,
2013-06-14 23:56:00,56.6,48.8,29.91,North,5,0.0,0.0,75,0.00,,,0.00,0.0,custom,2013-06-15 06:56:00,